<?xml version="1.0" encoding="UTF-8" standalone="no" ?><gpx xmlns="http://www.topografix.com/GPX/1/1" xmlns:gpxx="http://www.garmin.com/xmlschemas/GpxExtensions/v3" xmlns:wptx1="http://www.garmin.com/xmlschemas/WaypointExtension/v1" xmlns:gpxtpx="http://www.garmin.com/xmlschemas/TrackPointExtension/v1" creator="GuideVTT.com" version="1.1" xmlns:xsi="http://www.w3.org/2001/XMLSchema-instance" xsi:schemaLocation="http://www.topografix.com/GPX/1/1 http://www.topografix.com/GPX/1/1/gpx.xsd http://www.garmin.com/xmlschemas/GpxExtensions/v3 http://www8.garmin.com/xmlschemas/GpxExtensionsv3.xsd http://www.garmin.com/xmlschemas/WaypointExtension/v1 http://www8.garmin.com/xmlschemas/WaypointExtensionv1.xsd http://www.garmin.com/xmlschemas/TrackPointExtension/v1 http://www.garmin.com/xmlschemas/TrackPointExtensionv1.xsd">
<metadata><link href="http://www.garmin.com"><text>Garmin International</text></link><time>2013-06-22T15:13:50Z</time></metadata>
<trk><name>tour_20080515.gpx</name><extensions><gpxx:TrackExtension><gpxx:DisplayColor>Cyan</gpxx:DisplayColor></gpxx:TrackExtension></extensions><trkseg>
<trkpt lat="49.67751490" lon="5.79696178"><ele></ele><time>2014-6-11T7:0:47Z</time></trkpt>
<trkpt lat="49.67748000" lon="5.79699000"><ele></ele><time>2014-6-11T7:0:50Z</time></trkpt>
<trkpt lat="49.67674000" lon="5.79499000"><ele></ele><time>2014-6-11T7:0:53Z</time></trkpt>
<trkpt lat="49.67605000" lon="5.79332000"><ele></ele><time>2014-6-11T7:0:56Z</time></trkpt>
<trkpt lat="49.67580000" lon="5.79292000"><ele></ele><time>2014-6-11T7:0:59Z</time></trkpt>
<trkpt lat="49.67513000" lon="5.79210000"><ele></ele><time>2014-6-11T7:1:2Z</time></trkpt>
<trkpt lat="49.67536000" lon="5.79164000"><ele></ele><time>2014-6-11T7:1:5Z</time></trkpt>
<trkpt lat="49.67619000" lon="5.79022000"><ele></ele><time>2014-6-11T7:1:8Z</time></trkpt>
<trkpt lat="49.67683000" lon="5.78803000"><ele></ele><time>2014-6-11T7:1:11Z</time></trkpt>
<trkpt lat="49.67713000" lon="5.78615000"><ele></ele><time>2014-6-11T7:1:14Z</time></trkpt>
<trkpt lat="49.67724000" lon="5.78576000"><ele></ele><time>2014-6-11T7:1:17Z</time></trkpt>
<trkpt lat="49.67752000" lon="5.78530000"><ele></ele><time>2014-6-11T7:1:20Z</time></trkpt>
<trkpt lat="49.67981980" lon="5.77837944"><ele></ele><time>2014-6-11T7:1:23Z</time></trkpt>
<trkpt lat="49.67993080" lon="5.77305793"><ele></ele><time>2014-6-11T7:1:26Z</time></trkpt>
<trkpt lat="49.68143030" lon="5.77078342"><ele></ele><time>2014-6-11T7:1:29Z</time></trkpt>
<trkpt lat="49.68670590" lon="5.76906681"><ele></ele><time>2014-6-11T7:1:32Z</time></trkpt>
<trkpt lat="49.68670000" lon="5.76904000"><ele></ele><time>2014-6-11T7:1:35Z</time></trkpt>
<trkpt lat="49.68732000" lon="5.76897000"><ele></ele><time>2014-6-11T7:1:38Z</time></trkpt>
<trkpt lat="49.68819000" lon="5.76931000"><ele></ele><time>2014-6-11T7:1:41Z</time></trkpt>
<trkpt lat="49.68862000" lon="5.76944000"><ele></ele><time>2014-6-11T7:1:44Z</time></trkpt>
<trkpt lat="49.68881000" lon="5.76945000"><ele></ele><time>2014-6-11T7:1:47Z</time></trkpt>
<trkpt lat="49.68927000" lon="5.76913000"><ele></ele><time>2014-6-11T7:1:50Z</time></trkpt>
<trkpt lat="49.69071000" lon="5.76886000"><ele></ele><time>2014-6-11T7:1:53Z</time></trkpt>
<trkpt lat="49.69246000" lon="5.76824000"><ele></ele><time>2014-6-11T7:1:56Z</time></trkpt>
<trkpt lat="49.69266000" lon="5.76811000"><ele></ele><time>2014-6-11T7:1:59Z</time></trkpt>
<trkpt lat="49.69291000" lon="5.76779000"><ele></ele><time>2014-6-11T7:2:2Z</time></trkpt>
<trkpt lat="49.69308000" lon="5.76766000"><ele></ele><time>2014-6-11T7:2:5Z</time></trkpt>
<trkpt lat="49.69347000" lon="5.76746000"><ele></ele><time>2014-6-11T7:2:8Z</time></trkpt>
<trkpt lat="49.69600000" lon="5.76743000"><ele></ele><time>2014-6-11T7:2:11Z</time></trkpt>
<trkpt lat="49.69658000" lon="5.76688000"><ele></ele><time>2014-6-11T7:2:14Z</time></trkpt>
<trkpt lat="49.69702000" lon="5.76676000"><ele></ele><time>2014-6-11T7:2:17Z</time></trkpt>
<trkpt lat="49.69731000" lon="5.76658000"><ele></ele><time>2014-6-11T7:2:20Z</time></trkpt>
<trkpt lat="49.69786000" lon="5.76595000"><ele></ele><time>2014-6-11T7:2:23Z</time></trkpt>
<trkpt lat="49.69840000" lon="5.76552000"><ele></ele><time>2014-6-11T7:2:26Z</time></trkpt>
<trkpt lat="49.69873000" lon="5.76538000"><ele></ele><time>2014-6-11T7:2:29Z</time></trkpt>
<trkpt lat="49.69889000" lon="5.76538000"><ele></ele><time>2014-6-11T7:2:32Z</time></trkpt>
<trkpt lat="49.69946000" lon="5.76554000"><ele></ele><time>2014-6-11T7:2:35Z</time></trkpt>
<trkpt lat="49.69970000" lon="5.76334000"><ele></ele><time>2014-6-11T7:2:38Z</time></trkpt>
<trkpt lat="49.69974000" lon="5.76198000"><ele></ele><time>2014-6-11T7:2:41Z</time></trkpt>
<trkpt lat="49.69994000" lon="5.76071000"><ele></ele><time>2014-6-11T7:2:44Z</time></trkpt>
<trkpt lat="49.69998000" lon="5.76011000"><ele></ele><time>2014-6-11T7:2:47Z</time></trkpt>
<trkpt lat="49.70003000" lon="5.75522000"><ele></ele><time>2014-6-11T7:2:50Z</time></trkpt>
<trkpt lat="49.70017000" lon="5.75374000"><ele></ele><time>2014-6-11T7:2:53Z</time></trkpt>
<trkpt lat="49.70023000" lon="5.75340000"><ele></ele><time>2014-6-11T7:2:56Z</time></trkpt>
<trkpt lat="49.70024000" lon="5.75308000"><ele></ele><time>2014-6-11T7:2:59Z</time></trkpt>
<trkpt lat="49.70017000" lon="5.75068000"><ele></ele><time>2014-6-11T7:3:2Z</time></trkpt>
<trkpt lat="49.70011000" lon="5.74982000"><ele></ele><time>2014-6-11T7:3:5Z</time></trkpt>
<trkpt lat="49.69979000" lon="5.74792000"><ele></ele><time>2014-6-11T7:3:8Z</time></trkpt>
<trkpt lat="49.69971000" lon="5.74685000"><ele></ele><time>2014-6-11T7:3:11Z</time></trkpt>
<trkpt lat="49.69962000" lon="5.74641000"><ele></ele><time>2014-6-11T7:3:14Z</time></trkpt>
<trkpt lat="49.70092000" lon="5.74548000"><ele></ele><time>2014-6-11T7:3:17Z</time></trkpt>
<trkpt lat="49.70109000" lon="5.74544000"><ele></ele><time>2014-6-11T7:3:20Z</time></trkpt>
<trkpt lat="49.70185000" lon="5.74554000"><ele></ele><time>2014-6-11T7:3:23Z</time></trkpt>
<trkpt lat="49.70213000" lon="5.74542000"><ele></ele><time>2014-6-11T7:3:26Z</time></trkpt>
<trkpt lat="49.70225000" lon="5.74521000"><ele></ele><time>2014-6-11T7:3:29Z</time></trkpt>
<trkpt lat="49.70258000" lon="5.74394000"><ele></ele><time>2014-6-11T7:3:32Z</time></trkpt>
<trkpt lat="49.70275000" lon="5.74350000"><ele></ele><time>2014-6-11T7:3:35Z</time></trkpt>
<trkpt lat="49.70335000" lon="5.74257000"><ele></ele><time>2014-6-11T7:3:38Z</time></trkpt>
<trkpt lat="49.70364000" lon="5.74232000"><ele></ele><time>2014-6-11T7:3:41Z</time></trkpt>
<trkpt lat="49.70426000" lon="5.74192000"><ele></ele><time>2014-6-11T7:3:44Z</time></trkpt>
<trkpt lat="49.70447000" lon="5.74170000"><ele></ele><time>2014-6-11T7:3:47Z</time></trkpt>
<trkpt lat="49.70463000" lon="5.74136000"><ele></ele><time>2014-6-11T7:3:50Z</time></trkpt>
<trkpt lat="49.70479000" lon="5.74088000"><ele></ele><time>2014-6-11T7:3:53Z</time></trkpt>
<trkpt lat="49.70501000" lon="5.74054000"><ele></ele><time>2014-6-11T7:3:56Z</time></trkpt>
<trkpt lat="49.70597000" lon="5.73931000"><ele></ele><time>2014-6-11T7:3:59Z</time></trkpt>
<trkpt lat="49.70631000" lon="5.73877000"><ele></ele><time>2014-6-11T7:4:2Z</time></trkpt>
<trkpt lat="49.70700000" lon="5.73729000"><ele></ele><time>2014-6-11T7:4:5Z</time></trkpt>
<trkpt lat="49.70738000" lon="5.73662000"><ele></ele><time>2014-6-11T7:4:8Z</time></trkpt>
<trkpt lat="49.70767000" lon="5.73655000"><ele></ele><time>2014-6-11T7:4:11Z</time></trkpt>
<trkpt lat="49.70805000" lon="5.73656000"><ele></ele><time>2014-6-11T7:4:14Z</time></trkpt>
<trkpt lat="49.70935000" lon="5.73670000"><ele></ele><time>2014-6-11T7:4:17Z</time></trkpt>
<trkpt lat="49.70954000" lon="5.73681000"><ele></ele><time>2014-6-11T7:4:20Z</time></trkpt>
<trkpt lat="49.70989000" lon="5.73730000"><ele></ele><time>2014-6-11T7:4:23Z</time></trkpt>
<trkpt lat="49.71026000" lon="5.73773000"><ele></ele><time>2014-6-11T7:4:26Z</time></trkpt>
<trkpt lat="49.71065000" lon="5.73787000"><ele></ele><time>2014-6-11T7:4:29Z</time></trkpt>
<trkpt lat="49.71153000" lon="5.73786000"><ele></ele><time>2014-6-11T7:4:32Z</time></trkpt>
<trkpt lat="49.71355000" lon="5.73810000"><ele></ele><time>2014-6-11T7:4:35Z</time></trkpt>
<trkpt lat="49.71363000" lon="5.73805000"><ele></ele><time>2014-6-11T7:4:38Z</time></trkpt>
<trkpt lat="49.71391000" lon="5.73789000"><ele></ele><time>2014-6-11T7:4:41Z</time></trkpt>
<trkpt lat="49.71385000" lon="5.73830000"><ele></ele><time>2014-6-11T7:4:44Z</time></trkpt>
<trkpt lat="49.71422000" lon="5.73908000"><ele></ele><time>2014-6-11T7:4:47Z</time></trkpt>
<trkpt lat="49.71454000" lon="5.73962000"><ele></ele><time>2014-6-11T7:4:50Z</time></trkpt>
<trkpt lat="49.71519000" lon="5.74043000"><ele></ele><time>2014-6-11T7:4:53Z</time></trkpt>
<trkpt lat="49.71580000" lon="5.74099000"><ele></ele><time>2014-6-11T7:4:56Z</time></trkpt>
<trkpt lat="49.71670000" lon="5.74203000"><ele></ele><time>2014-6-11T7:4:59Z</time></trkpt>
<trkpt lat="49.71742000" lon="5.74310000"><ele></ele><time>2014-6-11T7:5:2Z</time></trkpt>
<trkpt lat="49.71777000" lon="5.74383000"><ele></ele><time>2014-6-11T7:5:5Z</time></trkpt>
<trkpt lat="49.71785000" lon="5.74418000"><ele></ele><time>2014-6-11T7:5:8Z</time></trkpt>
<trkpt lat="49.71786000" lon="5.74548000"><ele></ele><time>2014-6-11T7:5:11Z</time></trkpt>
<trkpt lat="49.71793000" lon="5.74592000"><ele></ele><time>2014-6-11T7:5:14Z</time></trkpt>
<trkpt lat="49.71824000" lon="5.74662000"><ele></ele><time>2014-6-11T7:5:17Z</time></trkpt>
<trkpt lat="49.71865000" lon="5.74736000"><ele></ele><time>2014-6-11T7:5:20Z</time></trkpt>
<trkpt lat="49.71887000" lon="5.74799000"><ele></ele><time>2014-6-11T7:5:23Z</time></trkpt>
<trkpt lat="49.71897000" lon="5.74833000"><ele></ele><time>2014-6-11T7:5:26Z</time></trkpt>
<trkpt lat="49.71908000" lon="5.74896000"><ele></ele><time>2014-6-11T7:5:29Z</time></trkpt>
<trkpt lat="49.71929000" lon="5.75052000"><ele></ele><time>2014-6-11T7:5:32Z</time></trkpt>
<trkpt lat="49.71981000" lon="5.75225000"><ele></ele><time>2014-6-11T7:5:35Z</time></trkpt>
<trkpt lat="49.72021000" lon="5.75440000"><ele></ele><time>2014-6-11T7:5:38Z</time></trkpt>
<trkpt lat="49.72084000" lon="5.75580000"><ele></ele><time>2014-6-11T7:5:41Z</time></trkpt>
<trkpt lat="49.72087000" lon="5.75615000"><ele></ele><time>2014-6-11T7:5:44Z</time></trkpt>
<trkpt lat="49.72077000" lon="5.75795000"><ele></ele><time>2014-6-11T7:5:47Z</time></trkpt>
<trkpt lat="49.72072000" lon="5.75980000"><ele></ele><time>2014-6-11T7:5:50Z</time></trkpt>
<trkpt lat="49.72026000" lon="5.76440000"><ele></ele><time>2014-6-11T7:5:53Z</time></trkpt>
<trkpt lat="49.72008000" lon="5.76541000"><ele></ele><time>2014-6-11T7:5:56Z</time></trkpt>
<trkpt lat="49.72007000" lon="5.76579000"><ele></ele><time>2014-6-11T7:5:59Z</time></trkpt>
<trkpt lat="49.72025000" lon="5.76630000"><ele></ele><time>2014-6-11T7:6:2Z</time></trkpt>
<trkpt lat="49.72073000" lon="5.76732000"><ele></ele><time>2014-6-11T7:6:5Z</time></trkpt>
<trkpt lat="49.72125000" lon="5.76826000"><ele></ele><time>2014-6-11T7:6:8Z</time></trkpt>
<trkpt lat="49.72154000" lon="5.76896000"><ele></ele><time>2014-6-11T7:6:11Z</time></trkpt>
<trkpt lat="49.72189000" lon="5.77311000"><ele></ele><time>2014-6-11T7:6:14Z</time></trkpt>
<trkpt lat="49.72200000" lon="5.77371000"><ele></ele><time>2014-6-11T7:6:17Z</time></trkpt>
<trkpt lat="49.72213000" lon="5.77418000"><ele></ele><time>2014-6-11T7:6:20Z</time></trkpt>
<trkpt lat="49.72294000" lon="5.77595000"><ele></ele><time>2014-6-11T7:6:23Z</time></trkpt>
<trkpt lat="49.72316000" lon="5.77665000"><ele></ele><time>2014-6-11T7:6:26Z</time></trkpt>
<trkpt lat="49.72322000" lon="5.77707000"><ele></ele><time>2014-6-11T7:6:29Z</time></trkpt>
<trkpt lat="49.72319000" lon="5.77755000"><ele></ele><time>2014-6-11T7:6:32Z</time></trkpt>
<trkpt lat="49.72296000" lon="5.77864000"><ele></ele><time>2014-6-11T7:6:35Z</time></trkpt>
<trkpt lat="49.72291000" lon="5.77971000"><ele></ele><time>2014-6-11T7:6:38Z</time></trkpt>
<trkpt lat="49.72323000" lon="5.78313000"><ele></ele><time>2014-6-11T7:6:41Z</time></trkpt>
<trkpt lat="49.72335000" lon="5.78411000"><ele></ele><time>2014-6-11T7:6:44Z</time></trkpt>
<trkpt lat="49.72361000" lon="5.78520000"><ele></ele><time>2014-6-11T7:6:47Z</time></trkpt>
<trkpt lat="49.72362000" lon="5.78537000"><ele></ele><time>2014-6-11T7:6:50Z</time></trkpt>
<trkpt lat="49.72360000" lon="5.78555000"><ele></ele><time>2014-6-11T7:6:53Z</time></trkpt>
<trkpt lat="49.72343000" lon="5.78602000"><ele></ele><time>2014-6-11T7:6:56Z</time></trkpt>
<trkpt lat="49.72321000" lon="5.78748000"><ele></ele><time>2014-6-11T7:6:59Z</time></trkpt>
<trkpt lat="49.72320000" lon="5.78771000"><ele></ele><time>2014-6-11T7:7:2Z</time></trkpt>
<trkpt lat="49.72332000" lon="5.78899000"><ele></ele><time>2014-6-11T7:7:5Z</time></trkpt>
<trkpt lat="49.72332000" lon="5.78929000"><ele></ele><time>2014-6-11T7:7:8Z</time></trkpt>
<trkpt lat="49.72326000" lon="5.78968000"><ele></ele><time>2014-6-11T7:7:11Z</time></trkpt>
<trkpt lat="49.72273000" lon="5.79154000"><ele></ele><time>2014-6-11T7:7:14Z</time></trkpt>
<trkpt lat="49.72268000" lon="5.79154000"><ele></ele><time>2014-6-11T7:7:17Z</time></trkpt>
<trkpt lat="49.72199000" lon="5.79153000"><ele></ele><time>2014-6-11T7:7:20Z</time></trkpt>
<trkpt lat="49.72162000" lon="5.79164000"><ele></ele><time>2014-6-11T7:7:23Z</time></trkpt>
<trkpt lat="49.72063000" lon="5.79167000"><ele></ele><time>2014-6-11T7:7:26Z</time></trkpt>
<trkpt lat="49.71954000" lon="5.79146000"><ele></ele><time>2014-6-11T7:7:29Z</time></trkpt>
<trkpt lat="49.71923000" lon="5.79145000"><ele></ele><time>2014-6-11T7:7:32Z</time></trkpt>
<trkpt lat="49.71900000" lon="5.79151000"><ele></ele><time>2014-6-11T7:7:35Z</time></trkpt>
<trkpt lat="49.71843000" lon="5.79189000"><ele></ele><time>2014-6-11T7:7:38Z</time></trkpt>
<trkpt lat="49.71798000" lon="5.79194000"><ele></ele><time>2014-6-11T7:7:41Z</time></trkpt>
<trkpt lat="49.71763000" lon="5.79183000"><ele></ele><time>2014-6-11T7:7:44Z</time></trkpt>
<trkpt lat="49.71677000" lon="5.79141000"><ele></ele><time>2014-6-11T7:7:47Z</time></trkpt>
<trkpt lat="49.71617000" lon="5.79145000"><ele></ele><time>2014-6-11T7:7:50Z</time></trkpt>
<trkpt lat="49.71606000" lon="5.79136000"><ele></ele><time>2014-6-11T7:7:53Z</time></trkpt>
<trkpt lat="49.71472000" lon="5.78960000"><ele></ele><time>2014-6-11T7:7:56Z</time></trkpt>
<trkpt lat="49.71377000" lon="5.78927000"><ele></ele><time>2014-6-11T7:7:59Z</time></trkpt>
<trkpt lat="49.71307000" lon="5.78863000"><ele></ele><time>2014-6-11T7:8:2Z</time></trkpt>
<trkpt lat="49.71279000" lon="5.78845000"><ele></ele><time>2014-6-11T7:8:5Z</time></trkpt>
<trkpt lat="49.71160000" lon="5.78803000"><ele></ele><time>2014-6-11T7:8:8Z</time></trkpt>
<trkpt lat="49.71077000" lon="5.78700000"><ele></ele><time>2014-6-11T7:8:11Z</time></trkpt>
<trkpt lat="49.71048000" lon="5.78680000"><ele></ele><time>2014-6-11T7:8:14Z</time></trkpt>
<trkpt lat="49.71026000" lon="5.78672000"><ele></ele><time>2014-6-11T7:8:17Z</time></trkpt>
<trkpt lat="49.71002000" lon="5.78673000"><ele></ele><time>2014-6-11T7:8:20Z</time></trkpt>
<trkpt lat="49.70953000" lon="5.78691000"><ele></ele><time>2014-6-11T7:8:23Z</time></trkpt>
<trkpt lat="49.70919000" lon="5.78717000"><ele></ele><time>2014-6-11T7:8:26Z</time></trkpt>
<trkpt lat="49.70798000" lon="5.78833000"><ele></ele><time>2014-6-11T7:8:29Z</time></trkpt>
<trkpt lat="49.70554000" lon="5.78927000"><ele></ele><time>2014-6-11T7:8:32Z</time></trkpt>
<trkpt lat="49.70488000" lon="5.78972000"><ele></ele><time>2014-6-11T7:8:35Z</time></trkpt>
<trkpt lat="49.70430000" lon="5.78983000"><ele></ele><time>2014-6-11T7:8:38Z</time></trkpt>
<trkpt lat="49.70267000" lon="5.78960000"><ele></ele><time>2014-6-11T7:8:41Z</time></trkpt>
<trkpt lat="49.70214000" lon="5.78983000"><ele></ele><time>2014-6-11T7:8:44Z</time></trkpt>
<trkpt lat="49.70166000" lon="5.79021000"><ele></ele><time>2014-6-11T7:8:47Z</time></trkpt>
<trkpt lat="49.70132000" lon="5.79058000"><ele></ele><time>2014-6-11T7:8:50Z</time></trkpt>
<trkpt lat="49.70082000" lon="5.79132000"><ele></ele><time>2014-6-11T7:8:53Z</time></trkpt>
<trkpt lat="49.69952000" lon="5.79355000"><ele></ele><time>2014-6-11T7:8:56Z</time></trkpt>
<trkpt lat="49.69846000" lon="5.79421000"><ele></ele><time>2014-6-11T7:8:59Z</time></trkpt>
<trkpt lat="49.69793000" lon="5.79463000"><ele></ele><time>2014-6-11T7:9:2Z</time></trkpt>
<trkpt lat="49.69790000" lon="5.79470000"><ele></ele><time>2014-6-11T7:9:5Z</time></trkpt>
<trkpt lat="49.69782000" lon="5.79486000"><ele></ele><time>2014-6-11T7:9:8Z</time></trkpt>
<trkpt lat="49.69738000" lon="5.79512000"><ele></ele><time>2014-6-11T7:9:11Z</time></trkpt>
<trkpt lat="49.69701000" lon="5.79553000"><ele></ele><time>2014-6-11T7:9:14Z</time></trkpt>
<trkpt lat="49.69627000" lon="5.79715000"><ele></ele><time>2014-6-11T7:9:17Z</time></trkpt>
<trkpt lat="49.69559000" lon="5.79803000"><ele></ele><time>2014-6-11T7:9:20Z</time></trkpt>
<trkpt lat="49.69527000" lon="5.79886000"><ele></ele><time>2014-6-11T7:9:23Z</time></trkpt>
<trkpt lat="49.69510000" lon="5.79971000"><ele></ele><time>2014-6-11T7:9:26Z</time></trkpt>
<trkpt lat="49.69494000" lon="5.80024000"><ele></ele><time>2014-6-11T7:9:29Z</time></trkpt>
<trkpt lat="49.69484000" lon="5.80039000"><ele></ele><time>2014-6-11T7:9:32Z</time></trkpt>
<trkpt lat="49.69481000" lon="5.80043000"><ele></ele><time>2014-6-11T7:9:35Z</time></trkpt>
<trkpt lat="49.69468000" lon="5.80030000"><ele></ele><time>2014-6-11T7:9:38Z</time></trkpt>
<trkpt lat="49.69461000" lon="5.80030000"><ele></ele><time>2014-6-11T7:9:41Z</time></trkpt>
<trkpt lat="49.69447000" lon="5.80041000"><ele></ele><time>2014-6-11T7:9:44Z</time></trkpt>
<trkpt lat="49.69442000" lon="5.80059000"><ele></ele><time>2014-6-11T7:9:47Z</time></trkpt>
<trkpt lat="49.69445000" lon="5.80087000"><ele></ele><time>2014-6-11T7:9:50Z</time></trkpt>
<trkpt lat="49.69006000" lon="5.80547000"><ele></ele><time>2014-6-11T7:9:53Z</time></trkpt>
<trkpt lat="49.68935000" lon="5.80666000"><ele></ele><time>2014-6-11T7:9:56Z</time></trkpt>
<trkpt lat="49.68924000" lon="5.80662000"><ele></ele><time>2014-6-11T7:9:59Z</time></trkpt>
<trkpt lat="49.68917000" lon="5.80679000"><ele></ele><time>2014-6-11T7:10:2Z</time></trkpt>
<trkpt lat="49.68537000" lon="5.80676000"><ele></ele><time>2014-6-11T7:10:5Z</time></trkpt>
<trkpt lat="49.68518000" lon="5.80936000"><ele></ele><time>2014-6-11T7:10:8Z</time></trkpt>
<trkpt lat="49.68512000" lon="5.80978000"><ele></ele><time>2014-6-11T7:10:11Z</time></trkpt>
<trkpt lat="49.68511000" lon="5.80983000"><ele></ele><time>2014-6-11T7:10:14Z</time></trkpt>
<trkpt lat="49.68460000" lon="5.80915000"><ele></ele><time>2014-6-11T7:10:17Z</time></trkpt>
<trkpt lat="49.68263000" lon="5.80638000"><ele></ele><time>2014-6-11T7:10:20Z</time></trkpt>
<trkpt lat="49.68231000" lon="5.80610000"><ele></ele><time>2014-6-11T7:10:23Z</time></trkpt>
<trkpt lat="49.68190000" lon="5.80583000"><ele></ele><time>2014-6-11T7:10:26Z</time></trkpt>
<trkpt lat="49.68193000" lon="5.80566000"><ele></ele><time>2014-6-11T7:10:29Z</time></trkpt>
<trkpt lat="49.68191000" lon="5.80545000"><ele></ele><time>2014-6-11T7:10:32Z</time></trkpt>
<trkpt lat="49.68179000" lon="5.80529000"><ele></ele><time>2014-6-11T7:10:35Z</time></trkpt>
<trkpt lat="49.68166000" lon="5.80526000"><ele></ele><time>2014-6-11T7:10:38Z</time></trkpt>
<trkpt lat="49.68156000" lon="5.80531000"><ele></ele><time>2014-6-11T7:10:41Z</time></trkpt>
<trkpt lat="49.68145000" lon="5.80558000"><ele></ele><time>2014-6-11T7:10:44Z</time></trkpt>
<trkpt lat="49.68074000" lon="5.80530000"><ele></ele><time>2014-6-11T7:10:47Z</time></trkpt>
<trkpt lat="49.68046000" lon="5.80534000"><ele></ele><time>2014-6-11T7:10:50Z</time></trkpt>
<trkpt lat="49.68040000" lon="5.80526000"><ele></ele><time>2014-6-11T7:10:53Z</time></trkpt>
<trkpt lat="49.68033000" lon="5.80526000"><ele></ele><time>2014-6-11T7:10:56Z</time></trkpt>
<trkpt lat="49.68027000" lon="5.80533000"><ele></ele><time>2014-6-11T7:10:59Z</time></trkpt>
<trkpt lat="49.68026000" lon="5.80546000"><ele></ele><time>2014-6-11T7:11:2Z</time></trkpt>
<trkpt lat="49.68021000" lon="5.80550000"><ele></ele><time>2014-6-11T7:11:5Z</time></trkpt>
<trkpt lat="49.67980000" lon="5.80567000"><ele></ele><time>2014-6-11T7:11:8Z</time></trkpt>
<trkpt lat="49.67946000" lon="5.80567000"><ele></ele><time>2014-6-11T7:11:11Z</time></trkpt>
<trkpt lat="49.67918000" lon="5.80548000"><ele></ele><time>2014-6-11T7:11:14Z</time></trkpt>
<trkpt lat="49.67873000" lon="5.80483000"><ele></ele><time>2014-6-11T7:11:17Z</time></trkpt>
<trkpt lat="49.67828000" lon="5.80403000"><ele></ele><time>2014-6-11T7:11:20Z</time></trkpt>
<trkpt lat="49.67803000" lon="5.80332000"><ele></ele><time>2014-6-11T7:11:23Z</time></trkpt>
<trkpt lat="49.67785000" lon="5.79898000"><ele></ele><time>2014-6-11T7:11:26Z</time></trkpt>
<trkpt lat="49.67778000" lon="5.79819000"><ele></ele><time>2014-6-11T7:11:29Z</time></trkpt>
<trkpt lat="49.67769000" lon="5.79772000"><ele></ele><time>2014-6-11T7:11:32Z</time></trkpt>
<trkpt lat="49.67753000" lon="5.79715000"><ele></ele><time>2014-6-11T7:11:35Z</time></trkpt>
<trkpt lat="" lon=""><ele></ele><time>2014-6-11T7:11:38Z</time></trkpt>
<trkpt lat="15052008." lon=""><ele></ele><time>2014-6-11T7:11:41Z</time></trkpt>
<trkpt lat="49.67751490" lon="5.79696178"><ele></ele><time>2014-6-11T7:11:44Z</time></trkpt>
<trkpt lat="49.67748000" lon="5.79699000"><ele></ele><time>2014-6-11T7:11:47Z</time></trkpt>
<trkpt lat="49.67674000" lon="5.79499000"><ele></ele><time>2014-6-11T7:11:50Z</time></trkpt>
<trkpt lat="49.67605000" lon="5.79332000"><ele></ele><time>2014-6-11T7:11:53Z</time></trkpt>
<trkpt lat="49.67580000" lon="5.79292000"><ele></ele><time>2014-6-11T7:11:56Z</time></trkpt>
<trkpt lat="49.67513000" lon="5.79210000"><ele></ele><time>2014-6-11T7:11:59Z</time></trkpt>
<trkpt lat="49.67536000" lon="5.79164000"><ele></ele><time>2014-6-11T7:12:2Z</time></trkpt>
<trkpt lat="49.67619000" lon="5.79022000"><ele></ele><time>2014-6-11T7:12:5Z</time></trkpt>
<trkpt lat="49.67683000" lon="5.78803000"><ele></ele><time>2014-6-11T7:12:8Z</time></trkpt>
<trkpt lat="49.67713000" lon="5.78615000"><ele></ele><time>2014-6-11T7:12:11Z</time></trkpt>
<trkpt lat="49.67724000" lon="5.78576000"><ele></ele><time>2014-6-11T7:12:14Z</time></trkpt>
<trkpt lat="49.67752000" lon="5.78530000"><ele></ele><time>2014-6-11T7:12:17Z</time></trkpt>
<trkpt lat="49.67981980" lon="5.77837944"><ele></ele><time>2014-6-11T7:12:20Z</time></trkpt>
<trkpt lat="49.67993080" lon="5.77305793"><ele></ele><time>2014-6-11T7:12:23Z</time></trkpt>
<trkpt lat="49.68143030" lon="5.77078342"><ele></ele><time>2014-6-11T7:12:26Z</time></trkpt>
<trkpt lat="49.68670590" lon="5.76906681"><ele></ele><time>2014-6-11T7:12:29Z</time></trkpt>
<trkpt lat="49.68670000" lon="5.76904000"><ele></ele><time>2014-6-11T7:12:32Z</time></trkpt>
<trkpt lat="49.68732000" lon="5.76897000"><ele></ele><time>2014-6-11T7:12:35Z</time></trkpt>
<trkpt lat="49.68819000" lon="5.76931000"><ele></ele><time>2014-6-11T7:12:38Z</time></trkpt>
<trkpt lat="49.68862000" lon="5.76944000"><ele></ele><time>2014-6-11T7:12:41Z</time></trkpt>
<trkpt lat="49.68881000" lon="5.76945000"><ele></ele><time>2014-6-11T7:12:44Z</time></trkpt>
<trkpt lat="49.68927000" lon="5.76913000"><ele></ele><time>2014-6-11T7:12:47Z</time></trkpt>
<trkpt lat="49.69071000" lon="5.76886000"><ele></ele><time>2014-6-11T7:12:50Z</time></trkpt>
<trkpt lat="49.69246000" lon="5.76824000"><ele></ele><time>2014-6-11T7:12:53Z</time></trkpt>
<trkpt lat="49.69266000" lon="5.76811000"><ele></ele><time>2014-6-11T7:12:56Z</time></trkpt>
<trkpt lat="49.69291000" lon="5.76779000"><ele></ele><time>2014-6-11T7:12:59Z</time></trkpt>
<trkpt lat="49.69308000" lon="5.76766000"><ele></ele><time>2014-6-11T7:13:2Z</time></trkpt>
<trkpt lat="49.69347000" lon="5.76746000"><ele></ele><time>2014-6-11T7:13:5Z</time></trkpt>
<trkpt lat="49.69600000" lon="5.76743000"><ele></ele><time>2014-6-11T7:13:8Z</time></trkpt>
<trkpt lat="49.69658000" lon="5.76688000"><ele></ele><time>2014-6-11T7:13:11Z</time></trkpt>
<trkpt lat="49.69702000" lon="5.76676000"><ele></ele><time>2014-6-11T7:13:14Z</time></trkpt>
<trkpt lat="49.69731000" lon="5.76658000"><ele></ele><time>2014-6-11T7:13:17Z</time></trkpt>
<trkpt lat="49.69786000" lon="5.76595000"><ele></ele><time>2014-6-11T7:13:20Z</time></trkpt>
<trkpt lat="49.69840000" lon="5.76552000"><ele></ele><time>2014-6-11T7:13:23Z</time></trkpt>
<trkpt lat="49.69873000" lon="5.76538000"><ele></ele><time>2014-6-11T7:13:26Z</time></trkpt>
<trkpt lat="49.69889000" lon="5.76538000"><ele></ele><time>2014-6-11T7:13:29Z</time></trkpt>
<trkpt lat="49.69946000" lon="5.76554000"><ele></ele><time>2014-6-11T7:13:32Z</time></trkpt>
<trkpt lat="49.69970000" lon="5.76334000"><ele></ele><time>2014-6-11T7:13:35Z</time></trkpt>
<trkpt lat="49.69974000" lon="5.76198000"><ele></ele><time>2014-6-11T7:13:38Z</time></trkpt>
<trkpt lat="49.69994000" lon="5.76071000"><ele></ele><time>2014-6-11T7:13:41Z</time></trkpt>
<trkpt lat="49.69998000" lon="5.76011000"><ele></ele><time>2014-6-11T7:13:44Z</time></trkpt>
<trkpt lat="49.70003000" lon="5.75522000"><ele></ele><time>2014-6-11T7:13:47Z</time></trkpt>
<trkpt lat="49.70017000" lon="5.75374000"><ele></ele><time>2014-6-11T7:13:50Z</time></trkpt>
<trkpt lat="49.70023000" lon="5.75340000"><ele></ele><time>2014-6-11T7:13:53Z</time></trkpt>
<trkpt lat="49.70024000" lon="5.75308000"><ele></ele><time>2014-6-11T7:13:56Z</time></trkpt>
<trkpt lat="49.70017000" lon="5.75068000"><ele></ele><time>2014-6-11T7:13:59Z</time></trkpt>
<trkpt lat="49.70011000" lon="5.74982000"><ele></ele><time>2014-6-11T7:14:2Z</time></trkpt>
<trkpt lat="49.69979000" lon="5.74792000"><ele></ele><time>2014-6-11T7:14:5Z</time></trkpt>
<trkpt lat="49.69971000" lon="5.74685000"><ele></ele><time>2014-6-11T7:14:8Z</time></trkpt>
<trkpt lat="49.69962000" lon="5.74641000"><ele></ele><time>2014-6-11T7:14:11Z</time></trkpt>
<trkpt lat="49.70092000" lon="5.74548000"><ele></ele><time>2014-6-11T7:14:14Z</time></trkpt>
<trkpt lat="49.70109000" lon="5.74544000"><ele></ele><time>2014-6-11T7:14:17Z</time></trkpt>
<trkpt lat="49.70185000" lon="5.74554000"><ele></ele><time>2014-6-11T7:14:20Z</time></trkpt>
<trkpt lat="49.70213000" lon="5.74542000"><ele></ele><time>2014-6-11T7:14:23Z</time></trkpt>
<trkpt lat="49.70225000" lon="5.74521000"><ele></ele><time>2014-6-11T7:14:26Z</time></trkpt>
<trkpt lat="49.70258000" lon="5.74394000"><ele></ele><time>2014-6-11T7:14:29Z</time></trkpt>
<trkpt lat="49.70275000" lon="5.74350000"><ele></ele><time>2014-6-11T7:14:32Z</time></trkpt>
<trkpt lat="49.70335000" lon="5.74257000"><ele></ele><time>2014-6-11T7:14:35Z</time></trkpt>
<trkpt lat="49.70364000" lon="5.74232000"><ele></ele><time>2014-6-11T7:14:38Z</time></trkpt>
<trkpt lat="49.70426000" lon="5.74192000"><ele></ele><time>2014-6-11T7:14:41Z</time></trkpt>
<trkpt lat="49.70447000" lon="5.74170000"><ele></ele><time>2014-6-11T7:14:44Z</time></trkpt>
<trkpt lat="49.70463000" lon="5.74136000"><ele></ele><time>2014-6-11T7:14:47Z</time></trkpt>
<trkpt lat="49.70479000" lon="5.74088000"><ele></ele><time>2014-6-11T7:14:50Z</time></trkpt>
<trkpt lat="49.70501000" lon="5.74054000"><ele></ele><time>2014-6-11T7:14:53Z</time></trkpt>
<trkpt lat="49.70597000" lon="5.73931000"><ele></ele><time>2014-6-11T7:14:56Z</time></trkpt>
<trkpt lat="49.70631000" lon="5.73877000"><ele></ele><time>2014-6-11T7:14:59Z</time></trkpt>
<trkpt lat="49.70700000" lon="5.73729000"><ele></ele><time>2014-6-11T7:15:2Z</time></trkpt>
<trkpt lat="49.70738000" lon="5.73662000"><ele></ele><time>2014-6-11T7:15:5Z</time></trkpt>
<trkpt lat="49.70767000" lon="5.73655000"><ele></ele><time>2014-6-11T7:15:8Z</time></trkpt>
<trkpt lat="49.70805000" lon="5.73656000"><ele></ele><time>2014-6-11T7:15:11Z</time></trkpt>
<trkpt lat="49.70935000" lon="5.73670000"><ele></ele><time>2014-6-11T7:15:14Z</time></trkpt>
<trkpt lat="49.70954000" lon="5.73681000"><ele></ele><time>2014-6-11T7:15:17Z</time></trkpt>
<trkpt lat="49.70989000" lon="5.73730000"><ele></ele><time>2014-6-11T7:15:20Z</time></trkpt>
<trkpt lat="49.71026000" lon="5.73773000"><ele></ele><time>2014-6-11T7:15:23Z</time></trkpt>
<trkpt lat="49.71065000" lon="5.73787000"><ele></ele><time>2014-6-11T7:15:26Z</time></trkpt>
<trkpt lat="49.71153000" lon="5.73786000"><ele></ele><time>2014-6-11T7:15:29Z</time></trkpt>
<trkpt lat="49.71355000" lon="5.73810000"><ele></ele><time>2014-6-11T7:15:32Z</time></trkpt>
<trkpt lat="49.71363000" lon="5.73805000"><ele></ele><time>2014-6-11T7:15:35Z</time></trkpt>
<trkpt lat="49.71391000" lon="5.73789000"><ele></ele><time>2014-6-11T7:15:38Z</time></trkpt>
<trkpt lat="49.71385000" lon="5.73830000"><ele></ele><time>2014-6-11T7:15:41Z</time></trkpt>
<trkpt lat="49.71422000" lon="5.73908000"><ele></ele><time>2014-6-11T7:15:44Z</time></trkpt>
<trkpt lat="49.71454000" lon="5.73962000"><ele></ele><time>2014-6-11T7:15:47Z</time></trkpt>
<trkpt lat="49.71519000" lon="5.74043000"><ele></ele><time>2014-6-11T7:15:50Z</time></trkpt>
<trkpt lat="49.71580000" lon="5.74099000"><ele></ele><time>2014-6-11T7:15:53Z</time></trkpt>
<trkpt lat="49.71670000" lon="5.74203000"><ele></ele><time>2014-6-11T7:15:56Z</time></trkpt>
<trkpt lat="49.71742000" lon="5.74310000"><ele></ele><time>2014-6-11T7:15:59Z</time></trkpt>
<trkpt lat="49.71777000" lon="5.74383000"><ele></ele><time>2014-6-11T7:16:2Z</time></trkpt>
<trkpt lat="49.71785000" lon="5.74418000"><ele></ele><time>2014-6-11T7:16:5Z</time></trkpt>
<trkpt lat="49.71786000" lon="5.74548000"><ele></ele><time>2014-6-11T7:16:8Z</time></trkpt>
<trkpt lat="49.71793000" lon="5.74592000"><ele></ele><time>2014-6-11T7:16:11Z</time></trkpt>
<trkpt lat="49.71824000" lon="5.74662000"><ele></ele><time>2014-6-11T7:16:14Z</time></trkpt>
<trkpt lat="49.71865000" lon="5.74736000"><ele></ele><time>2014-6-11T7:16:17Z</time></trkpt>
<trkpt lat="49.71887000" lon="5.74799000"><ele></ele><time>2014-6-11T7:16:20Z</time></trkpt>
<trkpt lat="49.71897000" lon="5.74833000"><ele></ele><time>2014-6-11T7:16:23Z</time></trkpt>
<trkpt lat="49.71908000" lon="5.74896000"><ele></ele><time>2014-6-11T7:16:26Z</time></trkpt>
<trkpt lat="49.71929000" lon="5.75052000"><ele></ele><time>2014-6-11T7:16:29Z</time></trkpt>
<trkpt lat="49.71981000" lon="5.75225000"><ele></ele><time>2014-6-11T7:16:32Z</time></trkpt>
<trkpt lat="49.72021000" lon="5.75440000"><ele></ele><time>2014-6-11T7:16:35Z</time></trkpt>
<trkpt lat="49.72084000" lon="5.75580000"><ele></ele><time>2014-6-11T7:16:38Z</time></trkpt>
<trkpt lat="49.72087000" lon="5.75615000"><ele></ele><time>2014-6-11T7:16:41Z</time></trkpt>
<trkpt lat="49.72077000" lon="5.75795000"><ele></ele><time>2014-6-11T7:16:44Z</time></trkpt>
<trkpt lat="49.72072000" lon="5.75980000"><ele></ele><time>2014-6-11T7:16:47Z</time></trkpt>
<trkpt lat="49.72026000" lon="5.76440000"><ele></ele><time>2014-6-11T7:16:50Z</time></trkpt>
<trkpt lat="49.72008000" lon="5.76541000"><ele></ele><time>2014-6-11T7:16:53Z</time></trkpt>
<trkpt lat="49.72007000" lon="5.76579000"><ele></ele><time>2014-6-11T7:16:56Z</time></trkpt>
<trkpt lat="49.72025000" lon="5.76630000"><ele></ele><time>2014-6-11T7:16:59Z</time></trkpt>
<trkpt lat="49.72073000" lon="5.76732000"><ele></ele><time>2014-6-11T7:17:2Z</time></trkpt>
<trkpt lat="49.72125000" lon="5.76826000"><ele></ele><time>2014-6-11T7:17:5Z</time></trkpt>
<trkpt lat="49.72154000" lon="5.76896000"><ele></ele><time>2014-6-11T7:17:8Z</time></trkpt>
<trkpt lat="49.72189000" lon="5.77311000"><ele></ele><time>2014-6-11T7:17:11Z</time></trkpt>
<trkpt lat="49.72200000" lon="5.77371000"><ele></ele><time>2014-6-11T7:17:14Z</time></trkpt>
<trkpt lat="49.72213000" lon="5.77418000"><ele></ele><time>2014-6-11T7:17:17Z</time></trkpt>
<trkpt lat="49.72294000" lon="5.77595000"><ele></ele><time>2014-6-11T7:17:20Z</time></trkpt>
<trkpt lat="49.72316000" lon="5.77665000"><ele></ele><time>2014-6-11T7:17:23Z</time></trkpt>
<trkpt lat="49.72322000" lon="5.77707000"><ele></ele><time>2014-6-11T7:17:26Z</time></trkpt>
<trkpt lat="49.72319000" lon="5.77755000"><ele></ele><time>2014-6-11T7:17:29Z</time></trkpt>
<trkpt lat="49.72296000" lon="5.77864000"><ele></ele><time>2014-6-11T7:17:32Z</time></trkpt>
<trkpt lat="49.72291000" lon="5.77971000"><ele></ele><time>2014-6-11T7:17:35Z</time></trkpt>
<trkpt lat="49.72323000" lon="5.78313000"><ele></ele><time>2014-6-11T7:17:38Z</time></trkpt>
<trkpt lat="49.72335000" lon="5.78411000"><ele></ele><time>2014-6-11T7:17:41Z</time></trkpt>
<trkpt lat="49.72361000" lon="5.78520000"><ele></ele><time>2014-6-11T7:17:44Z</time></trkpt>
<trkpt lat="49.72362000" lon="5.78537000"><ele></ele><time>2014-6-11T7:17:47Z</time></trkpt>
<trkpt lat="49.72360000" lon="5.78555000"><ele></ele><time>2014-6-11T7:17:50Z</time></trkpt>
<trkpt lat="49.72343000" lon="5.78602000"><ele></ele><time>2014-6-11T7:17:53Z</time></trkpt>
<trkpt lat="49.72321000" lon="5.78748000"><ele></ele><time>2014-6-11T7:17:56Z</time></trkpt>
<trkpt lat="49.72320000" lon="5.78771000"><ele></ele><time>2014-6-11T7:17:59Z</time></trkpt>
<trkpt lat="49.72332000" lon="5.78899000"><ele></ele><time>2014-6-11T7:18:2Z</time></trkpt>
<trkpt lat="49.72332000" lon="5.78929000"><ele></ele><time>2014-6-11T7:18:5Z</time></trkpt>
<trkpt lat="49.72326000" lon="5.78968000"><ele></ele><time>2014-6-11T7:18:8Z</time></trkpt>
<trkpt lat="49.72273000" lon="5.79154000"><ele></ele><time>2014-6-11T7:18:11Z</time></trkpt>
<trkpt lat="49.72268000" lon="5.79154000"><ele></ele><time>2014-6-11T7:18:14Z</time></trkpt>
<trkpt lat="49.72199000" lon="5.79153000"><ele></ele><time>2014-6-11T7:18:17Z</time></trkpt>
<trkpt lat="49.72162000" lon="5.79164000"><ele></ele><time>2014-6-11T7:18:20Z</time></trkpt>
<trkpt lat="49.72063000" lon="5.79167000"><ele></ele><time>2014-6-11T7:18:23Z</time></trkpt>
<trkpt lat="49.71954000" lon="5.79146000"><ele></ele><time>2014-6-11T7:18:26Z</time></trkpt>
<trkpt lat="49.71923000" lon="5.79145000"><ele></ele><time>2014-6-11T7:18:29Z</time></trkpt>
<trkpt lat="49.71900000" lon="5.79151000"><ele></ele><time>2014-6-11T7:18:32Z</time></trkpt>
<trkpt lat="49.71843000" lon="5.79189000"><ele></ele><time>2014-6-11T7:18:35Z</time></trkpt>
<trkpt lat="49.71798000" lon="5.79194000"><ele></ele><time>2014-6-11T7:18:38Z</time></trkpt>
<trkpt lat="49.71763000" lon="5.79183000"><ele></ele><time>2014-6-11T7:18:41Z</time></trkpt>
<trkpt lat="49.71677000" lon="5.79141000"><ele></ele><time>2014-6-11T7:18:44Z</time></trkpt>
<trkpt lat="49.71617000" lon="5.79145000"><ele></ele><time>2014-6-11T7:18:47Z</time></trkpt>
<trkpt lat="49.71606000" lon="5.79136000"><ele></ele><time>2014-6-11T7:18:50Z</time></trkpt>
<trkpt lat="49.71472000" lon="5.78960000"><ele></ele><time>2014-6-11T7:18:53Z</time></trkpt>
<trkpt lat="49.71377000" lon="5.78927000"><ele></ele><time>2014-6-11T7:18:56Z</time></trkpt>
<trkpt lat="49.71307000" lon="5.78863000"><ele></ele><time>2014-6-11T7:18:59Z</time></trkpt>
<trkpt lat="49.71279000" lon="5.78845000"><ele></ele><time>2014-6-11T7:19:2Z</time></trkpt>
<trkpt lat="49.71160000" lon="5.78803000"><ele></ele><time>2014-6-11T7:19:5Z</time></trkpt>
<trkpt lat="49.71077000" lon="5.78700000"><ele></ele><time>2014-6-11T7:19:8Z</time></trkpt>
<trkpt lat="49.71048000" lon="5.78680000"><ele></ele><time>2014-6-11T7:19:11Z</time></trkpt>
<trkpt lat="49.71026000" lon="5.78672000"><ele></ele><time>2014-6-11T7:19:14Z</time></trkpt>
<trkpt lat="49.71002000" lon="5.78673000"><ele></ele><time>2014-6-11T7:19:17Z</time></trkpt>
<trkpt lat="49.70953000" lon="5.78691000"><ele></ele><time>2014-6-11T7:19:20Z</time></trkpt>
<trkpt lat="49.70919000" lon="5.78717000"><ele></ele><time>2014-6-11T7:19:23Z</time></trkpt>
<trkpt lat="49.70798000" lon="5.78833000"><ele></ele><time>2014-6-11T7:19:26Z</time></trkpt>
<trkpt lat="49.70554000" lon="5.78927000"><ele></ele><time>2014-6-11T7:19:29Z</time></trkpt>
<trkpt lat="49.70488000" lon="5.78972000"><ele></ele><time>2014-6-11T7:19:32Z</time></trkpt>
<trkpt lat="49.70430000" lon="5.78983000"><ele></ele><time>2014-6-11T7:19:35Z</time></trkpt>
<trkpt lat="49.70267000" lon="5.78960000"><ele></ele><time>2014-6-11T7:19:38Z</time></trkpt>
<trkpt lat="49.70214000" lon="5.78983000"><ele></ele><time>2014-6-11T7:19:41Z</time></trkpt>
<trkpt lat="49.70166000" lon="5.79021000"><ele></ele><time>2014-6-11T7:19:44Z</time></trkpt>
<trkpt lat="49.70132000" lon="5.79058000"><ele></ele><time>2014-6-11T7:19:47Z</time></trkpt>
<trkpt lat="49.70082000" lon="5.79132000"><ele></ele><time>2014-6-11T7:19:50Z</time></trkpt>
<trkpt lat="49.69952000" lon="5.79355000"><ele></ele><time>2014-6-11T7:19:53Z</time></trkpt>
<trkpt lat="49.69846000" lon="5.79421000"><ele></ele><time>2014-6-11T7:19:56Z</time></trkpt>
<trkpt lat="49.69793000" lon="5.79463000"><ele></ele><time>2014-6-11T7:19:59Z</time></trkpt>
<trkpt lat="49.69790000" lon="5.79470000"><ele></ele><time>2014-6-11T7:20:2Z</time></trkpt>
<trkpt lat="49.69782000" lon="5.79486000"><ele></ele><time>2014-6-11T7:20:5Z</time></trkpt>
<trkpt lat="49.69738000" lon="5.79512000"><ele></ele><time>2014-6-11T7:20:8Z</time></trkpt>
<trkpt lat="49.69701000" lon="5.79553000"><ele></ele><time>2014-6-11T7:20:11Z</time></trkpt>
<trkpt lat="49.69627000" lon="5.79715000"><ele></ele><time>2014-6-11T7:20:14Z</time></trkpt>
<trkpt lat="49.69559000" lon="5.79803000"><ele></ele><time>2014-6-11T7:20:17Z</time></trkpt>
<trkpt lat="49.69527000" lon="5.79886000"><ele></ele><time>2014-6-11T7:20:20Z</time></trkpt>
<trkpt lat="49.69510000" lon="5.79971000"><ele></ele><time>2014-6-11T7:20:23Z</time></trkpt>
<trkpt lat="49.69494000" lon="5.80024000"><ele></ele><time>2014-6-11T7:20:26Z</time></trkpt>
<trkpt lat="49.69484000" lon="5.80039000"><ele></ele><time>2014-6-11T7:20:29Z</time></trkpt>
<trkpt lat="49.69481000" lon="5.80043000"><ele></ele><time>2014-6-11T7:20:32Z</time></trkpt>
<trkpt lat="49.69468000" lon="5.80030000"><ele></ele><time>2014-6-11T7:20:35Z</time></trkpt>
<trkpt lat="49.69461000" lon="5.80030000"><ele></ele><time>2014-6-11T7:20:38Z</time></trkpt>
<trkpt lat="49.69447000" lon="5.80041000"><ele></ele><time>2014-6-11T7:20:41Z</time></trkpt>
<trkpt lat="49.69442000" lon="5.80059000"><ele></ele><time>2014-6-11T7:20:44Z</time></trkpt>
<trkpt lat="49.69445000" lon="5.80087000"><ele></ele><time>2014-6-11T7:20:47Z</time></trkpt>
<trkpt lat="49.69006000" lon="5.80547000"><ele></ele><time>2014-6-11T7:20:50Z</time></trkpt>
<trkpt lat="49.68935000" lon="5.80666000"><ele></ele><time>2014-6-11T7:20:53Z</time></trkpt>
<trkpt lat="49.68924000" lon="5.80662000"><ele></ele><time>2014-6-11T7:20:56Z</time></trkpt>
<trkpt lat="49.68917000" lon="5.80679000"><ele></ele><time>2014-6-11T7:20:59Z</time></trkpt>
<trkpt lat="49.68537000" lon="5.80676000"><ele></ele><time>2014-6-11T7:21:2Z</time></trkpt>
<trkpt lat="49.68518000" lon="5.80936000"><ele></ele><time>2014-6-11T7:21:5Z</time></trkpt>
<trkpt lat="49.68512000" lon="5.80978000"><ele></ele><time>2014-6-11T7:21:8Z</time></trkpt>
<trkpt lat="49.68511000" lon="5.80983000"><ele></ele><time>2014-6-11T7:21:11Z</time></trkpt>
<trkpt lat="49.68460000" lon="5.80915000"><ele></ele><time>2014-6-11T7:21:14Z</time></trkpt>
<trkpt lat="49.68263000" lon="5.80638000"><ele></ele><time>2014-6-11T7:21:17Z</time></trkpt>
<trkpt lat="49.68231000" lon="5.80610000"><ele></ele><time>2014-6-11T7:21:20Z</time></trkpt>
<trkpt lat="49.68190000" lon="5.80583000"><ele></ele><time>2014-6-11T7:21:23Z</time></trkpt>
<trkpt lat="49.68193000" lon="5.80566000"><ele></ele><time>2014-6-11T7:21:26Z</time></trkpt>
<trkpt lat="49.68191000" lon="5.80545000"><ele></ele><time>2014-6-11T7:21:29Z</time></trkpt>
<trkpt lat="49.68179000" lon="5.80529000"><ele></ele><time>2014-6-11T7:21:32Z</time></trkpt>
<trkpt lat="49.68166000" lon="5.80526000"><ele></ele><time>2014-6-11T7:21:35Z</time></trkpt>
<trkpt lat="49.68156000" lon="5.80531000"><ele></ele><time>2014-6-11T7:21:38Z</time></trkpt>
<trkpt lat="49.68145000" lon="5.80558000"><ele></ele><time>2014-6-11T7:21:41Z</time></trkpt>
<trkpt lat="49.68074000" lon="5.80530000"><ele></ele><time>2014-6-11T7:21:44Z</time></trkpt>
<trkpt lat="49.68046000" lon="5.80534000"><ele></ele><time>2014-6-11T7:21:47Z</time></trkpt>
<trkpt lat="49.68040000" lon="5.80526000"><ele></ele><time>2014-6-11T7:21:50Z</time></trkpt>
<trkpt lat="49.68033000" lon="5.80526000"><ele></ele><time>2014-6-11T7:21:53Z</time></trkpt>
<trkpt lat="49.68027000" lon="5.80533000"><ele></ele><time>2014-6-11T7:21:56Z</time></trkpt>
<trkpt lat="49.68026000" lon="5.80546000"><ele></ele><time>2014-6-11T7:21:59Z</time></trkpt>
<trkpt lat="49.68021000" lon="5.80550000"><ele></ele><time>2014-6-11T7:22:2Z</time></trkpt>
<trkpt lat="49.67980000" lon="5.80567000"><ele></ele><time>2014-6-11T7:22:5Z</time></trkpt>
<trkpt lat="49.67946000" lon="5.80567000"><ele></ele><time>2014-6-11T7:22:8Z</time></trkpt>
<trkpt lat="49.67918000" lon="5.80548000"><ele></ele><time>2014-6-11T7:22:11Z</time></trkpt>
<trkpt lat="49.67873000" lon="5.80483000"><ele></ele><time>2014-6-11T7:22:14Z</time></trkpt>
<trkpt lat="49.67828000" lon="5.80403000"><ele></ele><time>2014-6-11T7:22:17Z</time></trkpt>
<trkpt lat="49.67803000" lon="5.80332000"><ele></ele><time>2014-6-11T7:22:20Z</time></trkpt>
<trkpt lat="49.67785000" lon="5.79898000"><ele></ele><time>2014-6-11T7:22:23Z</time></trkpt>
<trkpt lat="49.67778000" lon="5.79819000"><ele></ele><time>2014-6-11T7:22:26Z</time></trkpt>
<trkpt lat="49.67769000" lon="5.79772000"><ele></ele><time>2014-6-11T7:22:29Z</time></trkpt>
<trkpt lat="49.67753000" lon="5.79715000"><ele></ele><time>2014-6-11T7:22:32Z</time></trkpt>
<trkpt lat="" lon=""><ele></ele><time>2014-6-11T7:22:35Z</time></trkpt>
</trkseg></trk></gpx>